Location: Boiro
(42.6475°N, 8.8834°W)
Time: 18:49:46
(UTC+01:00)

Transit 2A Rocket - Pass Details

Date: 06 December 2021
Orbit: 584 x 918 km, 66.7° (Epoch: 19 January)

Event Time Altitude Azimuth Distance (km) Brightness Sun altitude
Rises 16:17:35 0° 334° (NNW) 3,563 8.2 13.8°
Reaches altitude 10° 16:20:26 10° 344° (NNW) 2,608 7.5 13.5°
Maximum altitude 16:25:53 33° 47° (NE) 1,465 6.1 12.8°
Drops below altitude 10° 16:31:03 10° 110° (ESE) 2,477 7.5 12.2°
Sets 16:33:41 0° 120° (ESE) 3,361 8.2 11.9°
